"Period start","avg(HW err(1)/warn(2) (#))","avg(Visibility (m))","avg(Weather code (#))","avg(Precip intensity (mm/h))","min(HW err(1)/warn(2) (#))","max(HW err(1)/warn(2) (#))","std(HW err(1)/warn(2) (#))","med(HW err(1)/warn(2) (#))","min(Visibility (m))","max(Visibility (m))","std(Visibility (m))","med(Visibility (m))","min(Weather code (#))","max(Weather code (#))","std(Weather code (#))","med(Weather code (#))","min(Precip intensity (mm/h))","max(Precip intensity (mm/h))","std(Precip intensity (mm/h))","med(Precip intensity (mm/h))"
2014-07-24 00:00:00,0,49352,0,0.00,0,0,0,0,45653,50000,1387,50000,0,0,0,0,0.00,0.00,0.00,0.00
2014-07-24 00:10:00,0,50000,33,0.03,0,0,0,0,50000,50000,0,50000,0,61,27,51,0.00,0.10,0.04,0.00
2014-07-24 00:20:00,0,49940,47,0.02,0,0,0,0,49490,50000,152,50000,0,61,16,51,0.00,0.05,0.02,0.00
2014-07-24 00:30:00,0,49761,43,0.03,0,0,0,0,48540,50000,493,50000,0,61,22,51,0.00,0.15,0.05,0.00
2014-07-24 00:40:00,0,49955,12,0.01,0,0,0,0,49552,50000,134,50000,0,61,24,0,0.00,0.15,0.05,0.00
2014-07-24 00:50:00,0,49940,8,0.00,0,0,0,0,49405,50000,178,50000,0,41,16,0,0.00,0.00,0.00,0.00
2014-07-24 01:00:00,0,48033,0,0.00,0,0,0,0,41040,50000,2992,49821,0,0,0,0,0.00,0.00,0.00,0.00
2014-07-24 01:10:00,0,49939,0,0.00,0,0,0,0,49394,50000,182,50000,0,0,0,0,0.00,0.00,0.00,0.00
2014-07-24 01:20:00,0,50000,0,0.00,0,0,0,0,50000,50000,0,50000,0,0,0,0,0.00,0.00,0.00,0.00
2014-07-24 01:30:00,0,49160,0,0.00,0,0,0,0,46805,50000,1200,49772,0,0,0,0,0.00,0.00,0.00,0.00
2014-07-24 01:40:00,0,49977,0,0.00,0,2,1,0,49767,50000,70,50000,0,0,0,0,0.00,0.00,0.00,0.00
2014-07-24 01:50:00,1,48929,0,0.00,0,2,1,1,42034,50000,2434,50000,0,0,0,0,0.00,0.00,0.00,0.00
2014-07-24 02:00:00,1,49298,0,0.00,0,2,1,2,45630,50000,1353,50000,0,0,0,0,0.00,0.00,0.00,0.00
2014-07-24 02:10:00,2,48462,0,0.00,0,2,1,2,44333,50000,2226,50000,0,0,0,0,0.00,0.00,0.00,0.00
2014-07-24 02:20:00,0,49008,0,0.00,0,2,1,0,43806,50000,1875,50000,0,0,0,0,0.00,0.00,0.00,0.00
2014-07-24 02:30:00,0,49673,0,0.00,0,0,0,0,47388,50000,787,50000,0,0,0,0,0.00,0.00,0.00,0.00
2014-07-24 02:40:00,0,49580,0,0.00,0,0,0,0,47862,50000,729,50000,0,0,0,0,0.00,0.00,0.00,0.00
2014-07-24 02:50:00,0,47485,0,0.00,0,0,0,0,38381,50000,3290,47846,0,0,0,0,0.00,0.00,0.00,0.00
2014-07-24 03:00:00,0,48163,0,0.00,0,0,0,0,43421,50000,2516,49784,0,0,0,0,0.00,0.00,0.00,0.00
2014-07-24 03:10:00,0,49201,0,0.00,0,0,0,0,46356,50000,1147,49799,0,0,0,0,0.00,0.00,0.00,0.00
2014-07-24 03:20:00,0,49697,0,0.00,0,0,0,0,47423,50000,770,50000,0,0,0,0,0.00,0.00,0.00,0.00
2014-07-24 03:30:00,0,49136,0,0.00,0,0,0,0,45515,50000,1576,50000,0,0,0,0,0.00,0.00,0.00,0.00
2014-07-24 03:40:00,0,49320,0,0.00,0,0,0,0,43203,50000,2039,50000,0,0,0,0,0.00,0.00,0.00,0.00
2014-07-24 03:50:00,0,49742,0,0.00,0,0,0,0,48691,50000,517,50000,0,0,0,0,0.00,0.00,0.00,0.00
2014-07-24 04:00:00,0,48639,0,0.00,0,0,0,0,43819,50000,2175,50000,0,0,0,0,0.00,0.00,0.00,0.00
2014-07-24 04:10:00,0,49900,0,0.00,0,0,0,0,48904,50000,315,50000,0,0,0,0,0.00,0.00,0.00,0.00
2014-07-24 04:20:00,0,48218,0,0.00,0,0,0,0,39589,50000,3350,49992,0,0,0,0,0.00,0.00,0.00,0.00
2014-07-24 04:30:00,0,49993,0,0.00,0,0,0,0,49941,50000,19,50000,0,0,0,0,0.00,0.00,0.00,0.00
2014-07-24 04:40:00,0,47961,0,0.00,0,0,0,0,43311,50000,2589,49950,0,0,0,0,0.00,0.00,0.00,0.00
2014-07-24 04:50:00,0,49440,0,0.00,0,0,0,0,47148,50000,964,50000,0,0,0,0,0.00,0.00,0.00,0.00
2014-07-24 05:00:00,0,50000,0,0.00,0,0,0,0,50000,50000,0,50000,0,0,0,0,0.00,0.00,0.00,0.00
2014-07-24 05:10:00,0,49572,0,0.00,0,0,0,0,46652,50000,1012,50000,0,0,0,0,0.00,0.00,0.00,0.00
2014-07-24 05:20:00,0,49979,0,0.00,0,0,0,0,49793,50000,62,50000,0,0,0,0,0.00,0.00,0.00,0.00
2014-07-24 05:30:00,0,49443,0,0.00,0,0,0,0,47108,50000,945,50000,0,0,0,0,0.00,0.00,0.00,0.00
2014-07-24 05:40:00,0,49777,0,0.00,0,0,0,0,47766,50000,670,50000,0,0,0,0,0.00,0.00,0.00,0.00
2014-07-24 05:50:00,0,49413,0,0.00,0,0,0,0,45428,50000,1384,50000,0,0,0,0,0.00,0.00,0.00,0.00
2014-07-24 06:00:00,0,49142,0,0.00,0,0,0,0,41638,50000,2502,50000,0,0,0,0,0.00,0.00,0.00,0.00
2014-07-24 06:10:00,0,48523,0,0.00,0,0,0,0,41836,50000,2605,50000,0,0,0,0,0.00,0.00,0.00,0.00
2014-07-24 06:20:00,0,50000,0,0.00,0,0,0,0,50000,50000,0,50000,0,0,0,0,0.00,0.00,0.00,0.00
2014-07-24 06:30:00,0,49933,0,0.00,0,0,0,0,49326,50000,202,50000,0,0,0,0,0.00,0.00,0.00,0.00
2014-07-24 06:40:00,0,49842,0,0.00,0,0,0,0,48424,50000,473,50000,0,0,0,0,0.00,0.00,0.00,0.00
2014-07-24 06:50:00,0,50000,0,0.00,0,0,0,0,50000,50000,0,50000,0,0,0,0,0.00,0.00,0.00,0.00
2014-07-24 07:00:00,0,50000,0,0.00,0,0,0,0,50000,50000,0,50000,0,0,0,0,0.00,0.00,0.00,0.00
2014-07-24 07:10:00,0,50000,0,0.00,0,0,0,0,50000,50000,0,50000,0,0,0,0,0.00,0.00,0.00,0.00
2014-07-24 07:20:00,0,49719,0,0.00,0,0,0,0,48203,50000,589,50000,0,0,0,0,0.00,0.00,0.00,0.00
2014-07-24 07:30:00,0,50000,0,0.00,0,0,0,0,50000,50000,0,50000,0,0,0,0,0.00,0.00,0.00,0.00
2014-07-24 07:40:00,0,49867,0,0.00,0,0,0,0,48673,50000,398,50000,0,0,0,0,0.00,0.00,0.00,0.00
2014-07-24 07:50:00,0,50000,0,0.00,0,0,0,0,50000,50000,0,50000,0,0,0,0,0.00,0.00,0.00,0.00
2014-07-24 08:00:00,0,50000,0,0.00,0,0,0,0,50000,50000,0,50000,0,0,0,0,0.00,0.00,0.00,0.00
2014-07-24 08:10:00,0,50000,0,0.00,0,0,0,0,50000,50000,0,50000,0,0,0,0,0.00,0.00,0.00,0.00
2014-07-24 08:20:00,0,49692,0,0.00,0,0,0,0,46917,50000,925,50000,0,0,0,0,0.00,0.00,0.00,0.00
2014-07-24 08:30:00,0,49942,0,0.00,0,0,0,0,49422,50000,173,50000,0,0,0,0,0.00,0.00,0.00,0.00
2014-07-24 08:40:00,0,50000,0,0.00,0,0,0,0,50000,50000,0,50000,0,0,0,0,0.00,0.00,0.00,0.00
2014-07-24 08:50:00,0,50000,0,0.00,0,0,0,0,50000,50000,0,50000,0,0,0,0,0.00,0.00,0.00,0.00
2014-07-24 09:00:00,0,50000,0,0.00,0,0,0,0,50000,50000,0,50000,0,0,0,0,0.00,0.00,0.00,0.00
2014-07-24 09:10:00,0,49834,0,0.00,0,0,0,0,48898,50000,353,50000,0,0,0,0,0.00,0.00,0.00,0.00
2014-07-24 09:20:00,0,50000,0,0.00,0,0,0,0,50000,50000,0,50000,0,0,0,0,0.00,0.00,0.00,0.00
2014-07-24 09:30:00,0,49840,0,0.00,0,0,0,0,48403,50000,479,50000,0,0,0,0,0.00,0.00,0.00,0.00
2014-07-24 09:40:00,0,50000,0,0.00,0,0,0,0,50000,50000,0,50000,0,0,0,0,0.00,0.00,0.00,0.00
2014-07-24 09:50:00,0,50000,0,0.00,0,0,0,0,50000,50000,0,50000,0,0,0,0,0.00,0.00,0.00,0.00
2014-07-24 10:00:00,0,49800,0,0.00,0,0,0,0,48000,50000,600,50000,0,0,0,0,0.00,0.00,0.00,0.00
2014-07-24 10:10:00,0,50000,0,0.00,0,0,0,0,50000,50000,0,50000,0,0,0,0,0.00,0.00,0.00,0.00
2014-07-24 10:20:00,0,50000,0,0.00,0,0,0,0,50000,50000,0,50000,0,0,0,0,0.00,0.00,0.00,0.00
2014-07-24 10:30:00,0,50000,0,0.00,0,0,0,0,50000,50000,0,50000,0,0,0,0,0.00,0.00,0.00,0.00
2014-07-24 10:40:00,0,49710,0,0.00,0,0,0,0,47096,50000,871,50000,0,0,0,0,0.00,0.00,0.00,0.00
2014-07-24 10:50:00,0,50000,0,0.00,0,0,0,0,50000,50000,0,50000,0,0,0,0,0.00,0.00,0.00,0.00
2014-07-24 11:00:00,0,49797,0,0.00,0,0,0,0,47968,50000,610,50000,0,0,0,0,0.00,0.00,0.00,0.00
2014-07-24 11:10:00,0,49929,0,0.00,0,0,0,0,49292,50000,212,50000,0,0,0,0,0.00,0.00,0.00,0.00
2014-07-24 11:20:00,0,50000,0,0.00,0,0,0,0,50000,50000,0,50000,0,0,0,0,0.00,0.00,0.00,0.00
2014-07-24 11:30:00,0,50000,0,0.00,0,0,0,0,50000,50000,0,50000,0,0,0,0,0.00,0.00,0.00,0.00
2014-07-24 11:40:00,0,50000,0,0.00,0,0,0,0,50000,50000,0,50000,0,0,0,0,0.00,0.00,0.00,0.00
2014-07-24 11:50:00,1,50000,0,0.00,0,2,1,2,50000,50000,0,50000,0,0,0,0,0.00,0.00,0.00,0.00
2014-07-24 12:00:00,1,50000,0,0.00,0,2,1,2,50000,50000,0,50000,0,0,0,0,0.00,0.00,0.00,0.00
2014-07-24 12:10:00,2,50000,0,0.00,0,2,1,2,50000,50000,0,50000,0,0,0,0,0.00,0.00,0.00,0.00
2014-07-24 12:20:00,2,50000,0,0.00,2,2,0,2,50000,50000,0,50000,0,0,0,0,0.00,0.00,0.00,0.00
2014-07-24 12:30:00,0,50000,0,0.00,0,0,0,0,50000,50000,0,50000,0,0,0,0,0.00,0.00,0.00,0.00
2014-07-24 12:40:00,0,50000,0,0.00,0,0,0,0,50000,50000,0,50000,0,0,0,0,0.00,0.00,0.00,0.00
2014-07-24 12:50:00,0,50000,0,0.00,0,0,0,0,50000,50000,0,50000,0,0,0,0,0.00,0.00,0.00,0.00
2014-07-24 13:00:00,0,50000,0,0.00,0,0,0,0,50000,50000,0,50000,0,0,0,0,0.00,0.00,0.00,0.00
2014-07-24 13:10:00,0,50000,0,0.00,0,0,0,0,50000,50000,0,50000,0,0,0,0,0.00,0.00,0.00,0.00
2014-07-24 13:20:00,0,50000,0,0.00,0,0,0,0,50000,50000,0,50000,0,0,0,0,0.00,0.00,0.00,0.00
2014-07-24 13:30:00,0,50000,0,0.00,0,0,0,0,50000,50000,0,50000,0,0,0,0,0.00,0.00,0.00,0.00
2014-07-24 13:40:00,0,50000,0,0.00,0,0,0,0,50000,50000,0,50000,0,0,0,0,0.00,0.00,0.00,0.00
2014-07-24 13:50:00,0,50000,0,0.00,0,2,1,0,50000,50000,0,50000,0,0,0,0,0.00,0.00,0.00,0.00
2014-07-24 14:00:00,2,50000,0,0.00,0,2,1,2,50000,50000,0,50000,0,0,0,0,0.00,0.00,0.00,0.00
2014-07-24 14:10:00,2,50000,0,0.00,0,2,1,2,50000,50000,0,50000,0,0,0,0,0.00,0.00,0.00,0.00
2014-07-24 14:20:00,2,50000,0,0.00,0,2,1,2,50000,50000,0,50000,0,0,0,0,0.00,0.00,0.00,0.00
2014-07-24 14:30:00,2,50000,0,0.00,2,2,0,2,50000,50000,0,50000,0,0,0,0,0.00,0.00,0.00,0.00
2014-07-24 14:40:00,2,50000,0,0.00,0,2,1,2,50000,50000,0,50000,0,0,0,0,0.00,0.00,0.00,0.00
2014-07-24 14:50:00,2,50000,0,0.00,2,2,0,2,50000,50000,0,50000,0,0,0,0,0.00,0.00,0.00,0.00
2014-07-24 15:00:00,2,50000,0,0.00,2,2,0,2,50000,50000,0,50000,0,0,0,0,0.00,0.00,0.00,0.00
2014-07-24 15:10:00,2,50000,0,0.00,2,2,0,2,50000,50000,0,50000,0,0,0,0,0.00,0.00,0.00,0.00
2014-07-24 15:20:00,2,50000,0,0.00,0,2,1,2,50000,50000,0,50000,0,0,0,0,0.00,0.00,0.00,0.00
2014-07-24 15:30:00,2,50000,0,0.00,2,2,0,2,50000,50000,0,50000,0,0,0,0,0.00,0.00,0.00,0.00
2014-07-24 15:40:00,2,49905,0,0.00,0,2,1,2,49049,50000,285,50000,0,0,0,0,0.00,0.00,0.00,0.00
2014-07-24 15:50:00,1,50000,0,0.00,0,2,1,2,50000,50000,0,50000,0,0,0,0,0.00,0.00,0.00,0.00
2014-07-24 16:00:00,2,50000,0,0.00,2,2,0,2,50000,50000,0,50000,0,0,0,0,0.00,0.00,0.00,0.00
2014-07-24 16:10:00,2,50000,0,0.00,2,2,0,2,50000,50000,0,50000,0,0,0,0,0.00,0.00,0.00,0.00
2014-07-24 16:20:00,2,50000,0,0.00,2,2,0,2,50000,50000,0,50000,0,0,0,0,0.00,0.00,0.00,0.00
2014-07-24 16:30:00,2,50000,0,0.00,2,2,0,2,50000,50000,0,50000,0,0,0,0,0.00,0.00,0.00,0.00
2014-07-24 16:40:00,2,50000,0,0.00,2,2,0,2,50000,50000,0,50000,0,0,0,0,0.00,0.00,0.00,0.00
2014-07-24 16:50:00,2,50000,0,0.00,2,2,0,2,50000,50000,0,50000,0,0,0,0,0.00,0.00,0.00,0.00
2014-07-24 17:00:00,2,50000,0,0.00,2,2,0,2,50000,50000,0,50000,0,0,0,0,0.00,0.00,0.00,0.00
2014-07-24 17:10:00,2,50000,0,0.00,2,2,0,2,50000,50000,0,50000,0,0,0,0,0.00,0.00,0.00,0.00
2014-07-24 17:20:00,2,50000,0,0.00,2,2,0,2,50000,50000,0,50000,0,0,0,0,0.00,0.00,0.00,0.00
2014-07-24 17:30:00,2,49983,0,0.00,2,2,0,2,49832,50000,50,50000,0,0,0,0,0.00,0.00,0.00,0.00
2014-07-24 17:40:00,2,50000,0,0.00,2,2,0,2,50000,50000,0,50000,0,0,0,0,0.00,0.00,0.00,0.00
2014-07-24 17:50:00,2,50000,0,0.00,2,2,0,2,50000,50000,0,50000,0,0,0,0,0.00,0.00,0.00,0.00
2014-07-24 18:00:00,2,50000,0,0.00,2,2,0,2,50000,50000,0,50000,0,0,0,0,0.00,0.00,0.00,0.00
2014-07-24 18:10:00,2,50000,0,0.00,2,2,0,2,50000,50000,0,50000,0,0,0,0,0.00,0.00,0.00,0.00
2014-07-24 18:20:00,2,50000,0,0.00,2,2,0,2,50000,50000,0,50000,0,0,0,0,0.00,0.00,0.00,0.00
2014-07-24 18:30:00,2,50000,0,0.00,2,2,0,2,50000,50000,0,50000,0,0,0,0,0.00,0.00,0.00,0.00
2014-07-24 18:40:00,2,50000,0,0.00,2,2,0,2,50000,50000,0,50000,0,0,0,0,0.00,0.00,0.00,0.00
2014-07-24 18:50:00,2,50000,0,0.00,2,2,0,2,50000,50000,0,50000,0,0,0,0,0.00,0.00,0.00,0.00
2014-07-24 19:00:00,2,50000,0,0.00,2,2,0,2,50000,50000,0,50000,0,0,0,0,0.00,0.00,0.00,0.00
2014-07-24 19:10:00,2,50000,0,0.00,2,2,0,2,50000,50000,0,50000,0,0,0,0,0.00,0.00,0.00,0.00
2014-07-24 19:20:00,2,48376,0,0.00,2,2,0,2,45639,50000,1745,49135,0,0,0,0,0.00,0.00,0.00,0.00
2014-07-24 19:30:00,2,30387,0,0.00,2,2,0,2,17090,45232,8511,28660,0,0,0,0,0.00,0.00,0.00,0.00
2014-07-24 19:40:00,2,18911,0,0.00,2,2,0,2,12292,35591,6933,16452,0,0,0,0,0.00,0.00,0.00,0.00
2014-07-24 19:50:00,2,24972,0,0.00,2,2,0,2,17926,35831,5117,23598,0,0,0,0,0.00,0.00,0.00,0.00
2014-07-24 20:00:00,2,25788,0,0.00,2,2,0,2,15093,37545,8173,22282,0,0,0,0,0.00,0.00,0.00,0.00
2014-07-24 20:10:00,2,17352,0,0.00,2,2,0,2,14999,21469,2052,16968,0,0,0,0,0.00,0.00,0.00,0.00
2014-07-24 20:20:00,2,23416,0,0.00,2,2,0,2,10832,31787,6176,26254,0,0,0,0,0.00,0.00,0.00,0.00
2014-07-24 20:30:00,2,29485,0,0.00,2,2,0,2,17644,41948,7465,29567,0,0,0,0,0.00,0.00,0.00,0.00
2014-07-24 20:40:00,2,31570,0,0.00,2,2,0,2,17711,46710,9931,35042,0,0,0,0,0.00,0.00,0.00,0.00
2014-07-24 20:50:00,2,37260,0,0.00,2,2,0,2,21786,47951,7792,36806,0,0,0,0,0.00,0.00,0.00,0.00
2014-07-24 21:00:00,2,40922,0,0.00,2,2,0,2,28071,50000,6522,40946,0,0,0,0,0.00,0.00,0.00,0.00
2014-07-24 21:10:00,2,45563,0,0.00,2,2,0,2,32678,50000,5334,47123,0,0,0,0,0.00,0.00,0.00,0.00
2014-07-24 21:20:00,2,45550,0,0.00,2,2,0,2,38836,50000,4092,45108,0,0,0,0,0.00,0.00,0.00,0.00
2014-07-24 21:30:00,2,45122,0,0.00,2,2,0,2,36873,50000,4633,45774,0,0,0,0,0.00,0.00,0.00,0.00
2014-07-24 21:40:00,2,45239,0,0.00,2,2,0,2,36858,50000,3888,45735,0,0,0,0,0.00,0.00,0.00,0.00
2014-07-24 21:50:00,2,39784,0,0.00,2,2,0,2,32508,45700,4280,39338,0,0,0,0,0.00,0.00,0.00,0.00
2014-07-24 22:00:00,1,33542,0,0.00,0,2,1,1,23662,41893,4283,33596,0,0,0,0,0.00,0.00,0.00,0.00
2014-07-24 22:10:00,0,48963,0,0.00,0,2,1,0,40583,50000,2808,50000,0,0,0,0,0.00,0.00,0.00,0.00
2014-07-24 22:20:00,0,50000,0,0.00,0,0,0,0,50000,50000,0,50000,0,0,0,0,0.00,0.00,0.00,0.00
2014-07-24 22:30:00,0,49919,0,0.00,0,0,0,0,49192,50000,242,50000,0,0,0,0,0.00,0.00,0.00,0.00
2014-07-24 22:40:00,0,48846,0,0.00,0,0,0,0,44522,50000,2123,50000,0,0,0,0,0.00,0.00,0.00,0.00
2014-07-24 22:50:00,0,49877,0,0.00,0,0,0,0,49256,50000,253,50000,0,0,0,0,0.00,0.00,0.00,0.00
2014-07-24 23:00:00,0,50000,0,0.00,0,0,0,0,50000,50000,0,50000,0,0,0,0,0.00,0.00,0.00,0.00
2014-07-24 23:10:00,0,50000,0,0.00,0,0,0,0,50000,50000,0,50000,0,0,0,0,0.00,0.00,0.00,0.00
2014-07-24 23:20:00,0,50000,0,0.00,0,0,0,0,50000,50000,0,50000,0,0,0,0,0.00,0.00,0.00,0.00
2014-07-24 23:30:00,0,49876,0,0.00,0,0,0,0,48928,50000,320,50000,0,0,0,0,0.00,0.00,0.00,0.00
2014-07-24 23:40:00,0,50000,0,0.00,0,0,0,0,50000,50000,0,50000,0,0,0,0,0.00,0.00,0.00,0.00
2014-07-24 23:50:00,0,50000,0,0.00,0,0,0,0,50000,50000,0,50000,0,0,0,0,0.00,0.00,0.00,0.00
